Regional Weather Roundup
Issued by NWS

Home | Current Version | Previous Version | Graphics & Text | Print | Product List | Glossary On
Versions: 1 2 3 4 5 6 7 8 9 10 11 12 13 14 15 16 17 18 19 20 21 22 23 24 25 26 27 28 29 30 31 32 33 34 35 36 37 38 39 40 41 42 43 44 45 46 47 48 49 50
138
ASUS43 KDMX 240008
RWRIA

WEATHER ROUNDUP FOR IOWA
NATIONAL WEATHER SERVICE DES MOINES IA
700 PM CDT MON MAY 23 2016

NOTE: "FAIR" INDICATES FEW OR NO CLOUDS BELOW 12,000 FEET WITH NO
SIGNIFICANT WEATHER AND/OR OBSTRUCTIONS TO VISIBILITY.

* - THESE STATIONS ARE NOT NWS STATIONS...THUS NOT UNDER NWS
QUALITY CONTROL.  THEY ALSO DO NOT REPORT WEATHER SUCH
AS PRECIPITATION OR FOG.

IAZ001>003-012>014-020>022-031>034-043>046-240100-
   NORTHWEST IOWA

CITY           SKY/WX    TMP DP  RH WIND       PRES   REMARKS
CARROLL *      PTSUNNY   70  64  83 S5        29.79F
CHEROKEE *     TSTM      68  66  94 S10       29.79R
DENISON *      SUNNY     66  63  88 W7        29.78S
LE MARS *      DRIZZLE   66  63  88 SW6G13    29.78R
ORANGE CITY *  LGT RAIN  66  64  94 S7        29.78S
SHELDON *      LGT RAIN  66  66 100 S14G20    29.76S
SIOUX CITY     CLOUDY    67  63  87 S14       29.75S THUNDER
6HR MIN TEMP:  66; 6HR MAX TEMP:  81; 6HR PCP:  0.67;

SPENCER        LGT RAIN  68  61  78 SE16      29.78R
6HR MIN TEMP:  68; 6HR MAX TEMP:  77; 6HR PCP:  0.02;

STORM LAKE *   MOSUNNY   70  63  78 S22       29.79S
$$

IAZ055>058-069>071-079>083-090>094-240100-
   SOUTHWEST IOWA

CITY           SKY/WX    TMP DP  RH WIND       PRES   REMARKS
ATLANTIC *     SUNNY     72  59  64 SW12      29.79R
AUDUBON *      MOSUNNY   70  61  73 S8        29.80S
CLARINDA *       N/A     72  63  73 MISG      29.81S
COUNCIL BLFS * SUNNY     72  63  73 S7        29.79S
CRESTON *      SUNNY     70  59  68 S18       29.82S
HARLAN  *        N/A    N/A N/A N/A MISG        N/A
LAMONI         CLOUDY    70  63  78 S7        29.81F
6HR MIN TEMP:  64; 6HR MAX TEMP:  71; 6HR PCP:  0.01;

RED OAK *      SUNNY     72  61  68 S13       29.79S
SHENANDOAH *   SUNNY     72  61  68 S15G25    29.80R
$$

IAZ047>049-059>061-072>074-084-240100-
   CENTRAL IOWA

CITY           SKY/WX    TMP DP  RH WIND       PRES   REMARKS
AMES           CLOUDY    71  60  68 S10       29.80F
6HR MIN TEMP:  71; 6HR MAX TEMP:  80;

ANKENY *       SUNNY     73  63  68 S5        29.81F
BOONE *        MOSUNNY   70  61  73 S12       29.80S
CHARITON *     SUNNY     73  61  64 S17       29.80F
DES MOINES     CLOUDY    73  60  63 SW3       29.82F
6HR MIN TEMP:  72; 6HR MAX TEMP:  79; 6HR PCP: TRACE;

GRINNELL*      PTSUNNY   77  54  44 S10       29.83F
KNOXVILLE *    MOSUNNY   75  59  57 SE9       29.79F
MARSHALLTOWN   MOSUNNY   76  58  53 S8        29.81F
6HR MIN TEMP:  76; 6HR MAX TEMP:  83;

NEWTON *       CLOUDY    75  55  50 S8        29.81F
PELLA *        CLOUDY    77  54  44 SE9G20    29.82F
PERRY *          N/A     72  63  73 SE14      29.80F
$$

IAZ004>006-015-016-023>025-035-036-240100-
   NORTH CENTRAL IOWA

CITY           SKY/WX    TMP DP  RH WIND       PRES   REMARKS
ALGONA *       SUNNY     70  63  78 S20       29.79F
CLARION *      SUNNY     70  64  83 S13       29.81F
ESTHERVILLE    CLOUDY    71  58  63 S18G24    29.79R
6HR MIN TEMP:  70; 6HR MAX TEMP:  74;

FORT DODGE *   PTSUNNY   68  59  73 S13G18    29.81F
MASON CITY     CLOUDY    69  64  84 SW8       29.82F
6HR MIN TEMP:  63; 6HR MAX TEMP:  74; 6HR PCP:  0.49;

FOREST CITY *  MOSUNNY   64  64 100 S9        29.81F
WEBSTER CITY * SUNNY     70  63  78 S13       29.79R
IOWA FALLS *     N/A     73  61  64 S13       29.82S
$$

IAZ007>011-017>019-026>030-037>042-050>054-066-240100-
   NORTHEAST IOWA

CITY           SKY/WX    TMP DP  RH WIND       PRES   REMARKS
CEDAR RAPIDS   MOSUNNY   79  52  38 S14       29.84F
6HR MIN TEMP:  79; 6HR MAX TEMP:  85;

CHARLES CITY * PTSUNNY   72  68  88 CALM      29.83F
CLINTON *      CLOUDY    80  48  32 S15       29.88F
DECORAH *      CLOUDY    72  61  68 NW3       29.84F
DUBUQUE        SUNNY     78  46  32 S13       29.87F
6HR MIN TEMP:  78; 6HR MAX TEMP:  82;

MONTICELLO *   SUNNY     81  46  30 SW15      29.85S HX  80
OELWEIN *      MOSUNNY   79  55  44 SW15      29.84F
WATERLOO       PTSUNNY   78  55  44 SW14      29.82F
6HR MIN TEMP:  78; 6HR MAX TEMP:  86;

$$

IAZ064-065-067-068-078-240100-
   EAST CENTRAL IOWA

CITY           SKY/WX    TMP DP  RH WIND       PRES   REMARKS
DAVENPORT      CLOUDY    80  43  26 S9        29.88F
6HR MIN TEMP:  80; 6HR MAX TEMP:  87;

IOWA CITY      CLOUDY    79  50  36 S9        29.86F
6HR MIN TEMP:  79; 6HR MAX TEMP:  85;

MT. PLEASANT * CLOUDY    83  50  31 S9        29.87S HX  81
MUSCATINE *    SUNNY     79  48  34 S9        29.86F
QUAD CITIES    CLOUDY    81  45  28 S9        29.86F HX  80
6HR MIN TEMP:  81; 6HR MAX TEMP:  87;

$$

IAZ062-063-075>077-085>089-095>099-240100-
   SOUTHEAST IOWA

CITY           SKY/WX    TMP DP  RH WIND       PRES   REMARKS
BURLINGTON     CLOUDY    76  54  46 S5        29.87F
6HR MIN TEMP:  76; 6HR MAX TEMP:  84;

FAIRFIELD *      N/A    N/A N/A N/A MISG        N/A
FORT MADISON * SUNNY     77  52  41 S3        29.88F
KEOKUK *       SUNNY     77  55  47 S3        29.87S
OSKALOOSA *      N/A     78  52  40 S14       29.84F
OTTUMWA        CLOUDY    76  55  48 S13       29.83F
6HR MIN TEMP:  76; 6HR MAX TEMP:  83;

WASHINGTON *   SUNNY     79  52  38 S10       29.87F
$$

ABBREVIATIONS USED IN REMARKS
   TC - TEMPERATURES IN CELSIUS
  WCI - WIND CHILL INDEX
   HX - HEAT INDEX
  VSB - VISIBILITY
$$





USA.gov is the U.S. government's official web portal to all federal, state and local government web resources and services.